2015-12-14 00:02:04 r, 19.55m,0000000002Hz,0000359127c,0000000.779s, 012.5C,00002191
2015-12-14 00:12:05 r, 19.09m,0000000002Hz,0000235130c,0000000.510s, 012.5C,00002191
2015-12-14 00:22:04 r, 18.98m,0000000002Hz,0000213216c,0000000.463s, 012.5C,00002191
2015-12-14 00:32:04 r, 19.03m,0000000002Hz,0000223779c,0000000.486s, 012.5C,00002191
2015-12-14 00:42:05 r, 18.85m,0000000002Hz,0000188041c,0000000.408s, 012.5C,00002191
2015-12-14 00:52:04 r, 18.68m,0000000003Hz,0000163240c,0000000.354s, 012.8C,00002191
2015-12-14 01:02:04 r, 18.50m,0000000003Hz,0000137283c,0000000.298s, 012.8C,00002191
2015-12-14 01:12:06 r, 18.63m,0000000003Hz,0000156619c,0000000.340s, 013.2C,00002191
2015-12-14 01:22:04 r, 18.89m,0000000002Hz,0000196091c,0000000.426s, 013.2C,00002191
2015-12-14 01:32:04 r, 19.08m,0000000002Hz,0000232258c,0000000.504s, 013.5C,00002191
2015-12-14 01:42:04 r, 19.65m,0000000001Hz,0000395666c,0000000.859s, 013.5C,00002191
2015-12-14 01:52:04 r, 19.47m,0000000001Hz,0000335184c,0000000.727s, 013.2C,00002191
2015-12-14 02:02:04 r, 19.11m,0000000002Hz,0000239884c,0000000.521s, 013.2C,00002191
2015-12-14 02:12:05 r, 18.79m,0000000003Hz,0000178481c,0000000.387s, 013.2C,00002191
2015-12-14 02:22:04 r, 18.93m,0000000002Hz,0000202503c,0000000.439s, 012.8C,00002191
2015-12-14 02:32:04 r, 18.89m,0000000003Hz,0000194943c,0000000.423s, 012.8C,00002191
2015-12-14 02:42:04 r, 18.72m,0000000003Hz,0000167315c,0000000.363s, 012.8C,00002191
2015-12-14 02:52:04 r, 18.79m,0000000003Hz,0000178829c,0000000.388s, 012.8C,00002191
2015-12-14 03:02:04 r, 18.73m,0000000003Hz,0000171905c,0000000.373s, 013.2C,00002191
2015-12-14 03:12:05 r, 18.86m,0000000003Hz,0000189957c,0000000.412s, 013.2C,00002191
2015-12-14 03:22:04 r, 18.88m,0000000002Hz,0000192912c,0000000.419s, 013.2C,00002191
2015-12-14 03:32:04 r, 18.83m,0000000002Hz,0000185049c,0000000.402s, 013.2C,00002191
2015-12-14 03:42:04 r, 18.72m,0000000002Hz,0000168960c,0000000.367s, 013.2C,00002191
2015-12-14 03:52:04 r, 18.83m,0000000003Hz,0000185989c,0000000.404s, 013.2C,00002191
2015-12-14 04:02:04 r, 18.74m,0000000003Hz,0000171050c,0000000.371s, 012.8C,00002191
2015-12-14 04:12:04 r, 19.32m,0000000002Hz,0000292705c,0000000.635s, 012.8C,00002191
2015-12-14 04:22:04 r, 18.88m,0000000003Hz,0000193985c,0000000.421s, 012.8C,00002191
2015-12-14 04:32:04 r, 18.72m,0000000003Hz,0000167096c,0000000.363s, 012.8C,00002191
2015-12-14 04:42:04 r, 18.68m,0000000003Hz,0000162221c,0000000.352s, 012.8C,00002191
2015-12-14 04:52:04 r, 18.66m,0000000003Hz,0000160296c,0000000.348s, 012.8C,00002191
2015-12-14 05:02:04 r, 18.55m,0000000003Hz,0000144840c,0000000.314s, 012.8C,00002191
2015-12-14 05:12:04 r, 18.61m,0000000003Hz,0000152038c,0000000.330s, 012.8C,00002191
2015-12-14 05:22:04 r, 18.72m,0000000003Hz,0000167081c,0000000.363s, 012.5C,00002191
2015-12-14 05:32:04 r, 18.73m,0000000003Hz,0000169967c,0000000.369s, 012.5C,00002191
2015-12-14 05:42:06 r, 18.86m,0000000002Hz,0000190998c,0000000.414s, 012.5C,00002191
2015-12-14 05:52:04 r, 18.82m,0000000002Hz,0000183245c,0000000.398s, 012.5C,00002191
2015-12-14 06:02:04 r, 19.18m,0000000002Hz,0000255511c,0000000.554s, 012.2C,00002191
2015-12-14 06:12:04 r, 19.11m,0000000002Hz,0000239062c,0000000.519s, 012.2C,00002191
2015-12-14 06:22:04 r, 19.17m,0000000002Hz,0000253538c,0000000.550s, 012.2C,00002191
2015-12-14 06:32:04 r, 18.38m,0000000004Hz,0000123452c,0000000.268s, 012.2C,00002191
2015-12-14 06:42:04 r, 18.46m,0000000003Hz,0000133270c,0000000.289s, 012.2C,00002191
2015-12-14 06:52:04 r, 18.74m,0000000003Hz,0000171915c,0000000.373s, 012.5C,00002191
2015-12-14 07:02:04 r, 18.68m,0000000003Hz,0000161178c,0000000.350s, 012.5C,00002191
2015-12-14 07:12:04 r, 17.62m,0000000008Hz,0000061389c,0000000.133s, 012.2C,00002191
2015-12-14 07:22:04 r, 16.26m,0000000026Hz,0000017501c,0000000.038s, 011.9C,00002191
2015-12-14 07:32:04 r, 14.55m,0000000128Hz,0000000000c,0000000.000s, 011.6C,00002191
2015-12-14 07:42:04 r, 12.53m,0000000826Hz,0000000000c,0000000.000s, 011.2C,00002191
2015-12-14 07:52:04 r, 10.64m,0000004715Hz,0000000000c,0000000.000s, 010.9C,00002191
2015-12-14 08:02:04 r, 09.05m,0000020466Hz,0000000000c,0000000.000s, 011.2C,00002191
2015-12-14 08:12:04 r, 07.81m,0000063944Hz,0000000000c,0000000.000s, 011.2C,00002191
2015-12-14 08:22:05 r, 06.99m,0000135583Hz,0000000000c,0000000.000s, 011.6C,00002191
2015-12-14 08:32:04 r, 06.37m,0000239008Hz,0000000000c,0000000.000s, 011.6C,00002191
2015-12-14 08:42:04 r, 05.87m,0000378468Hz,0000000000c,0000000.000s, 011.9C,00002191
2015-12-14 08:52:04 r, 00.00m,0000597004Hz,0000000000c,0000000.000s, 011.9C,00002191
2015-12-14 09:02:04 r, 00.00m,0000597025Hz,0000000000c,0000000.000s, 011.9C,00002191
2015-12-14 09:12:04 r, 00.00m,0000596987Hz,0000000000c,0000000.000s, 011.9C,00002191
2015-12-14 09:22:06 r, 00.00m,0000596832Hz,0000000000c,0000000.000s, 012.2C,00002191
2015-12-14 09:32:04 r, 00.00m,0000596903Hz,0000000000c,0000000.000s, 012.5C,00002191
2015-12-14 09:42:04 r, 00.00m,0000596917Hz,0000000000c,0000000.000s, 012.5C,00002191
2015-12-14 09:52:05 r, 00.00m,0000596889Hz,0000000000c,0000000.000s, 012.5C,00002191
2015-12-14 10:02:04 r, 00.00m,0000596839Hz,0000000000c,0000000.000s, 012.8C,00002191
2015-12-14 10:12:04 r, 00.00m,0000596834Hz,0000000000c,0000000.000s, 012.5C,00002191
2015-12-14 10:22:04 r, 00.00m,0000596816Hz,0000000000c,0000000.000s, 012.5C,00002191
2015-12-14 10:32:04 r, 00.00m,0000596898Hz,0000000000c,0000000.000s, 012.8C,00002191
2015-12-14 10:42:04 r, 00.00m,0000596841Hz,0000000000c,0000000.000s, 012.8C,00002191
2015-12-14 10:52:04 r, 00.00m,0000596760Hz,0000000000c,0000000.000s, 013.2C,00002191
2015-12-14 11:02:04 r, 00.00m,0000596829Hz,0000000000c,0000000.000s, 013.8C,00002191
2015-12-14 11:12:04 r, 00.00m,0000596776Hz,0000000000c,0000000.000s, 014.1C,00002191
2015-12-14 11:22:04 r, 00.00m,0000596677Hz,0000000000c,0000000.000s, 014.1C,00002191
2015-12-14 11:32:04 r, 00.00m,0000596629Hz,0000000000c,0000000.000s, 014.5C,00002191
2015-12-14 11:42:04 r, 00.00m,0000596769Hz,0000000000c,0000000.000s, 014.5C,00002191
2015-12-14 11:52:04 r, 00.00m,0000596733Hz,0000000000c,0000000.000s, 014.1C,00002191
2015-12-14 12:02:04 r, 00.00m,0000596729Hz,0000000000c,0000000.000s, 014.1C,00002191
2015-12-14 12:12:04 r, 00.00m,0000596728Hz,0000000000c,0000000.000s, 014.5C,00002191
2015-12-14 12:22:04 r, 00.00m,0000596710Hz,0000000000c,0000000.000s, 014.5C,00002191
2015-12-14 12:32:04 r, 00.00m,0000596581Hz,0000000000c,0000000.000s, 014.5C,00002191
2015-12-14 12:42:04 r, 00.00m,0000596602Hz,0000000000c,0000000.000s, 014.8C,00002191
2015-12-14 12:52:04 r, 00.00m,0000596672Hz,0000000000c,0000000.000s, 014.8C,00002191
2015-12-14 13:02:04 r, 00.00m,0000596667Hz,0000000000c,0000000.000s, 014.8C,00002191
2015-12-14 13:12:04 r, 00.00m,0000596679Hz,0000000000c,0000000.000s, 014.8C,00002191
2015-12-14 13:22:06 r, 00.00m,0000596749Hz,0000000000c,0000000.000s, 014.8C,00002191
2015-12-14 13:32:04 r, 00.00m,0000596646Hz,0000000000c,0000000.000s, 014.8C,00002191
2015-12-14 13:42:04 r, 00.00m,0000596752Hz,0000000000c,0000000.000s, 014.8C,00002191
2015-12-14 13:52:05 r, 00.00m,0000596679Hz,0000000000c,0000000.000s, 014.5C,00002191
2015-12-14 14:02:04 r, 00.00m,0000596692Hz,0000000000c,0000000.000s, 014.5C,00002191
2015-12-14 14:12:04 r, 00.00m,0000596692Hz,0000000000c,0000000.000s, 014.5C,00002191
2015-12-14 14:22:05 r, 00.00m,0000596719Hz,0000000000c,0000000.000s, 014.5C,00002191
2015-12-14 14:32:04 r, 00.00m,0000596804Hz,0000000000c,0000000.000s, 014.1C,00002191
2015-12-14 14:42:04 r, 00.00m,0000596837Hz,0000000000c,0000000.000s, 013.8C,00002191
2015-12-14 14:52:05 r, 00.00m,0000596866Hz,0000000000c,0000000.000s, 013.8C,00002191
2015-12-14 15:02:04 r, 00.00m,0000596784Hz,0000000000c,0000000.000s, 013.5C,00002191
2015-12-14 15:12:04 r, 00.00m,0000596822Hz,0000000000c,0000000.000s, 013.5C,00002191
2015-12-14 15:22:05 r, 00.00m,0000596869Hz,0000000000c,0000000.000s, 013.2C,00002191
2015-12-14 15:32:04 r, 00.00m,0000596894Hz,0000000000c,0000000.000s, 013.2C,00002191
2015-12-14 15:42:04 r, 00.00m,0000596902Hz,0000000000c,0000000.000s, 012.8C,00002191
2015-12-14 15:52:04 r, 00.00m,0000596806Hz,0000000000c,0000000.000s, 012.5C,00002191
2015-12-14 16:02:04 r, 00.00m,0000476818Hz,0000000000c,0000000.000s, 012.5C,00002191
2015-12-14 16:12:04 r, 06.11m,0000305259Hz,0000000000c,0000000.000s, 012.2C,00002191
2015-12-14 16:22:04 r, 06.71m,0000174682Hz,0000000000c,0000000.000s, 011.9C,00002191
2015-12-14 16:32:04 r, 07.48m,0000086175Hz,0000000000c,0000000.000s, 011.6C,00002191
2015-12-14 16:42:04 r, 08.61m,0000030513Hz,0000000000c,0000000.000s, 011.6C,00002191
2015-12-14 16:52:04 r, 10.28m,0000006508Hz,0000000000c,0000000.000s, 011.2C,00002191
2015-12-14 17:02:04 r, 12.19m,0000001122Hz,0000000000c,0000000.000s, 010.9C,00002191
2015-12-14 17:12:04 r, 14.08m,0000000196Hz,0000000000c,0000000.000s, 010.9C,00002191
2015-12-14 17:22:05 r, 15.86m,0000000038Hz,0000012091c,0000000.026s, 010.9C,00002191
2015-12-14 17:32:04 r, 17.24m,0000000011Hz,0000043012c,0000000.093s, 010.6C,00002191
2015-12-14 17:42:04 r, 18.36m,0000000004Hz,0000119916c,0000000.260s, 010.6C,00002191
2015-12-14 17:52:04 r, 19.06m,0000000002Hz,0000227534c,0000000.494s, 010.6C,00002191
2015-12-14 18:02:04 r, 19.31m,0000000001Hz,0000290036c,0000000.629s, 010.3C,00002191
2015-12-14 18:12:04 r, 19.38m,0000000001Hz,0000308009c,0000000.668s, 010.3C,00002191
2015-12-14 18:22:06 r, 19.37m,0000000002Hz,0000303298c,0000000.658s, 010.3C,00002191
2015-12-14 18:32:04 r, 19.30m,0000000002Hz,0000286080c,0000000.621s, 010.3C,00002191
2015-12-14 18:42:04 r, 19.15m,0000000002Hz,0000248298c,0000000.539s, 010.3C,00002191
2015-12-14 18:52:05 r, 19.11m,0000000002Hz,0000238032c,0000000.517s, 010.3C,00002191
2015-12-14 19:02:04 r, 18.96m,0000000002Hz,0000209227c,0000000.454s, 009.9C,00002191
2015-12-14 19:12:04 r, 18.81m,0000000002Hz,0000180804c,0000000.392s, 009.9C,00002191
2015-12-14 19:22:04 r, 18.70m,0000000003Hz,0000164054c,0000000.356s, 009.9C,00002191
2015-12-14 19:32:04 r, 18.56m,0000000003Hz,0000144758c,0000000.314s, 009.9C,00002191
2015-12-14 19:42:04 r, 18.43m,0000000004Hz,0000127667c,0000000.277s, 009.9C,00002191
2015-12-14 19:52:04 r, 18.35m,0000000003Hz,0000119001c,0000000.258s, 010.3C,00002191
2015-12-14 20:02:04 r, 18.33m,0000000004Hz,0000117021c,0000000.254s, 009.9C,00002191
2015-12-14 20:12:04 r, 18.33m,0000000004Hz,0000116237c,0000000.252s, 009.9C,00002191
2015-12-14 20:22:05 r, 18.33m,0000000004Hz,0000117133c,0000000.254s, 009.9C,00002191
2015-12-14 20:32:04 r, 18.37m,0000000004Hz,0000121285c,0000000.263s, 009.9C,00002191
2015-12-14 20:42:04 r, 18.47m,0000000003Hz,0000133414c,0000000.290s, 009.9C,00002191
2015-12-14 20:52:06 r, 18.51m,0000000003Hz,0000138036c,0000000.300s, 009.9C,00002191
2015-12-14 21:02:04 r, 18.43m,0000000003Hz,0000128624c,0000000.279s, 009.9C,00002191
2015-12-14 21:12:04 r, 18.46m,0000000003Hz,0000131463c,0000000.285s, 009.6C,00002191
2015-12-14 21:22:04 r, 18.38m,0000000003Hz,0000122769c,0000000.266s, 009.6C,00002191
2015-12-14 21:32:04 r, 18.38m,0000000004Hz,0000122873c,0000000.267s, 009.6C,00002191
2015-12-14 21:42:04 r, 18.43m,0000000004Hz,0000127709c,0000000.277s, 009.6C,00002191
2015-12-14 21:52:05 r, 18.48m,0000000003Hz,0000134312c,0000000.291s, 009.6C,00002191
2015-12-14 22:02:04 r, 18.44m,0000000003Hz,0000129990c,0000000.282s, 009.6C,00002191
2015-12-14 22:12:04 r, 18.43m,0000000004Hz,0000128566c,0000000.279s, 009.3C,00002191
2015-12-14 22:22:04 r, 18.46m,0000000003Hz,0000132406c,0000000.287s, 009.3C,00002191
2015-12-14 22:32:04 r, 18.42m,0000000004Hz,0000126841c,0000000.275s, 009.3C,00002191
2015-12-14 22:42:04 r, 18.41m,0000000004Hz,0000125764c,0000000.273s, 009.3C,00002191
2015-12-14 22:52:04 r, 18.60m,0000000004Hz,0000149977c,0000000.325s, 009.3C,00002191
2015-12-14 23:02:04 r, 18.76m,0000000003Hz,0000173594c,0000000.377s, 009.0C,00002191
2015-12-14 23:12:04 r, 18.99m,0000000002Hz,0000214106c,0000000.465s, 009.0C,00002191
2015-12-14 23:22:04 r, 19.38m,0000000001Hz,0000308177c,0000000.669s, 009.0C,00002191
2015-12-14 23:32:05 r, 19.70m,0000000001Hz,0000416469c,0000000.904s, 008.7C,00002191
2015-12-14 23:42:04 r, 20.06m,0000000001Hz,0000576952c,0000001.252s, 008.7C,00002191
2015-12-14 23:52:04 r, 20.08m,0000000001Hz,0000586255c,0000001.272s, 008.3C,00002191
